Tracking 19485 objects as of 21-Jan-2019
HD Live streaming from Space Station
objects crossing your sky now

IRIDIUM 17

Track IRIDIUM 17 now!
10-day predictions
IRIDIUM 17 is classified as:


NORAD ID: 24870
Int'l Code: 1997-034B
Perigee: 776.6 km
Apogee: 782.1 km
Inclination: 86.4 °
Period: 100.3 minutes
Semi major axis: 7150 km
RCS: 3.8367 m2 (large)
Launch date: July 9, 1997
Source: United States (US)
Launch site: AIR FORCE WESTERN TEST RANGE (AFWTR)
aabbcc
Your satellite tracking list
Your tracking list is empty




NASA's NSSDC Master Catalog

Two Line Element Set (TLE):
1 24870U 97034B   19019.88141712 +.00000089 +00000-0 +24024-4 0  9999
2 24870 086.3992 136.4693 0003786 102.8189 257.3431 14.35860669127648
Source of the keplerian elements: AFSPC